Location: ????????
(37.6846°N, 24.0673°E)
Time: 15:02:43
(UTC+00:00)

CSL-04 DEB - Pass Details

Date: 14 July 2020
Orbit: 545 x 629 km, 98.7° (Epoch: 04 August)

Event Time Altitude Azimuth Distance (km) Brightness Sun altitude
Exits shadow 01:47:35 - 170° (S) 2,190 7.1 -14.6°
Reaches altitude 10° 01:48:14 10° 170° (S) 1,922 6.8 -14.5°
Maximum altitude 01:52:24 77° 256° (WSW) 603 4.3 -13.9°
Drops below altitude 10° 01:56:29 10° 344° (NNW) 1,885 7.4 -13.3°
Sets 01:58:36 0° 345° (NNW) 2,774 8.3 -13.0°
